Wind_Speed
15 14 14 9 10 11 14 10 9 7 7 4 6 5 4 5 3 4 14 18 17 15 15 16 16 17 17 18 16 15 14 14 13 13 14 12 10 11 11 10 9 7 7 5 4 4 4 4 5
18 18 14 14 8 14 13 10 9 8 6 7 4 3 4 0 5 11 15 18 17 15 14 15 16 17 17 16 15 14 14 13 13 13 12 11 11 10 9 9 9 7 7 6 4 4 4 5 5
16 16 16 9 12 13 11 8 8 8 8 6 4 2 3 4 5 15 15 16 18 15 14 15 16 15 15 15 14 15 14 12 13 12 10 10 9 9 8 7 7 5 5 5 5 5 5 5 5
14 16 16 15 11 9 8 6 4 7 8 7 4 3 6 10 13 14 15 16 17 16 14 14 15 15 14 15 14 14 13 12 11 11 10 9 9 7 6 5 4 4 3 4 3 4 4 5 4
12 12 10 14 11 6 4 4 4 6 4 5 5 3 10 15 17 16 15 15 15 16 14 14 15 15 14 14 13 13 12 12 11 10 9 8 8 7 5 3 2 3 3 3 2 3 3 4 4
8 11 12 17 12 7 3 3 3 4 5 6 7 7 11 16 17 16 15 16 15 14 14 14 14 14 13 13 12 11 11 10 9 8 6 5 5 4 3 1 1 2 2 3 3 3 4 4 4
10 8 9 10 11 8 3 3 2 2 4 5 8 5 8 15 18 16 16 16 15 14 13 14 14 13 13 12 11 9 8 7 7 5 4 3 3 2 2 2 3 4 4 5 6 6 6 5 5
9 8 9 10 10 8 7 3 2 4 4 3 5 3 10 11 16 17 16 15 16 14 13 13 13 12 11 10 9 7 6 6 5 4 4 2 0 1 1 3 5 8 9 9 9 9 8 7 7
10 6 10 9 9 8 8 4 4 5 6 2 2 6 9 9 14 16 16 16 15 15 13 13 12 11 10 9 8 6 5 5 4 5 5 4 4 3 3 3 2 2 3 6 12 11 10 9 9
5 7 9 8 4 5 8 5 6 8 6 6 0 2 7 9 12 15 14 13 14 14 14 13 12 11 9 8 7 5 3 3 3 2 2 6 6 4 4 4 3 3 4 4 6 10 13 12 12
5 6 9 7 8 7 5 7 5 5 3 2 1 2 7 12 14 15 15 14 14 14 14 13 13 12 10 9 7 5 3 1 2 2 3 3 5 6 6 6 5 5 5 6 8 9 8 11 16
6 8 8 6 9 6 5 6 5 5 6 4 2 6 9 13 15 17 16 15 13 13 14 13 12 11 11 9 7 6 3 2 1 2 3 5 5 5 5 3 6 8 11 14 14 13 11 8 10
5 5 6 7 9 8 4 3 2 3 6 6 6 7 12 13 16 16 16 16 15 13 11 10 10 9 8 8 8 6 3 4 2 1 2 4 5 4 5 4 7 8 10 14 16 14 12 9 9
6 3 5 5 7 7 6 6 2 1 2 4 6 7 11 13 15 15 16 15 14 13 13 13 11 10 9 8 7 7 5 4 3 2 4 5 7 6 8 8 9 12 16 15 14 15 9 9 9
3 1 2 5 5 6 8 5 1 2 3 2 3 7 10 12 14 12 14 14 12 10 10 12 11 10 9 8 6 7 6 5 5 5 6 7 8 9 9 11 14 16 17 18 18 17 8 10 10
3 5 7 6 4 4 6 3 8 4 3 4 2 5 10 13 15 16 15 11 10 8 14 9 7 9 8 8 8 7 7 5 6 7 9 9 10 10 10 10 11 14 18 20 18 17 15 13 12
7 7 3 2 4 3 5 6 12 8 5 7 4 6 8 15 16 19 15 12 8 7 12 9 6 7 10 10 8 7 5 5 6 7 11 10 9 8 9 11 14 15 17 16 15 7 10 14 13
7 9 3 2 3 3 6 8 11 9 7 6 9 7 10 10 12 11 16 12 8 3 3 4 2 7 13 13 11 8 8 7 7 6 5 4 6 8 9 12 13 17 15 12 11 9 9 13 16
10 9 8 2 3 3 6 7 6 10 8 8 13 12 11 12 14 14 15 14 12 10 6 5 6 5 10 13 10 10 11 9 9 7 6 7 7 8 11 14 15 17 16 16 12 11 12 13 14
17 14 14 11 4 6 9 11 8 8 9 6 8 14 14 16 15 14 16 18 15 12 11 10 9 9 10 14 12 13 12 10 10 9 8 9 10 11 12 14 17 18 16 15 14 13 14 16 16
23 20 15 9 11 11 10 17 8 9 10 10 8 13 17 17 15 13 12 14 16 15 13 11 13 12 11 14 15 14 12 9 9 9 9 10 12 11 13 14 14 13 13 12 10 8 9 10 10
25 20 17 11 9 13 6 17 8 7 11 10 12 7 18 19 20 15 13 12 11 13 14 13 12 11 11 12 12 11 12 10 8 6 6 8 11 12 10 8 9 9 10 10 10 8 6 7 9
24 18 16 15 14 16 17 12 14 8 8 8 12 10 12 18 20 18 13 14 12 12 11 11 10 9 8 8 9 10 9 7 6 6 6 8 10 6 5 6 8 9 10 11 10 8 8 8 8
20 17 16 17 18 20 20 13 17 9 6 7 10 11 10 17 19 21 17 15 14 12 12 11 11 10 9 8 7 7 8 7 7 5 7 10 8 5 7 8 9 10 10 10 11 11 10 9 10
18 21 21 17 17 14 11 11 18 11 13 10 9 11 8 15 18 21 23 21 16 11 10 11 10 9 9 9 9 8 7 7 6 7 8 9 6 7 8 7 8 11 12 12 11 11 11 11 11
21 22 22 14 13 18 9 13 20 10 10 9 13 13 12 13 17 18 20 22 22 19 13 10 10 10 9 8 8 8 8 9 10 8 7 7 5 7 6 7 7 10 13 15 15 14 14 13 13
16 22 22 24 13 13 10 8 14 14 11 10 12 10 9 10 17 17 19 22 25 24 19 11 11 11 10 9 7 7 8 10 10 10 8 5 4 5 5 7 10 12 11 12 14 15 15 15 15
22 14 19 21 15 15 18 12 15 11 13 9 10 10 8 17 13 19 20 19 20 26 23 16 13 12 11 10 9 9 10 11 11 11 9 6 5 5 6 8 9 11 14 16 16 16 16 16 15
18 18 18 16 23 15 12 14 11 9 10 11 11 10 7 10 14 18 22 21 19 21 22 21 16 14 12 11 9 10 11 12 12 11 10 8 6 6 6 8 10 11 14 16 16 16 14 14 13
14 22 21 20 19 19 22 22 12 15 16 14 12 10 11 5 12 18 19 23 23 18 20 24 18 18 16 13 12 12 14 13 12 11 12 11 8 8 9 11 12 14 17 18 18 17 15 12 12
Wind_Direction
37 39 47 69 63 71 61 65 72 63 50 58 145 87 92 80 93 138 153 138 135 132 125 123 117 116 115 113 113 112 109 105 106 111 111 110 110 119 135 124 119 116 115 116 115 110 106 106 105
37 42 65 80 67 69 71 64 75 77 59 82 79 75 64 150 67 129 142 137 135 134 128 124 117 118 115 112 112 110 106 108 106 101 106 112 110 117 121 118 116 115 117 114 112 109 103 101 104
36 36 55 68 54 67 75 77 87 52 61 90 40 82 122 135 121 141 142 137 137 138 131 128 120 119 116 117 116 112 112 109 101 103 107 107 113 114 110 104 106 117 120 127 125 120 118 114 113
39 45 46 53 64 71 76 84 100 63 45 47 71 49 114 133 136 136 136 137 138 138 135 131 127 126 123 119 116 114 111 106 105 104 105 108 102 96 97 99 109 122 131 125 131 134 140 130 126
21 27 49 57 58 64 57 86 95 45 50 61 66 82 129 135 133 136 135 135 136 139 138 135 130 127 124 121 121 119 115 108 106 103 101 98 96 96 94 109 125 149 152 152 175 165 173 171 159
12 31 51 50 49 43 53 40 86 47 29 45 73 106 138 137 137 140 140 139 138 139 139 137 134 130 125 123 118 112 108 107 106 102 96 95 99 103 119 130 227 239 200 196 204 204 213 210 203
17 30 28 32 38 40 55 33 73 82 67 88 96 104 161 152 147 147 146 146 142 141 143 140 138 133 128 123 115 108 105 101 94 93 98 113 123 146 180 228 247 257 254 243 231 229 228 228 227
14 22 26 28 29 37 23 23 40 94 358 43 88 355 172 172 156 153 151 151 145 143 141 139 138 132 127 123 117 111 103 92 79 53 47 37 159 183 255 248 247 256 253 251 246 237 232 240 247
39 28 32 20 29 22 39 25 29 358 355 32 71 128 178 181 169 158 158 156 147 143 144 140 139 137 134 129 119 112 101 82 62 48 45 45 62 72 79 31 58 334 298 273 248 254 248 245 248
30 31 357 340 360 20 46 47 23 21 23 31 3 170 165 166 179 158 155 151 148 147 147 144 144 143 142 134 130 130 113 69 28 4 358 0 50 51 47 50 59 19 5 346 289 265 258 253 253
357 8 6 347 340 357 45 48 40 52 21 293 4 122 164 161 168 158 153 154 155 155 153 153 156 156 155 150 151 150 136 108 312 329 295 338 15 10 8 8 11 359 338 323 315 299 284 259 253
16 351 6 339 350 0 31 56 65 70 54 66 39 127 147 162 170 165 161 163 162 161 162 164 165 166 165 166 169 169 173 192 234 306 295 296 322 350 336 332 343 330 332 323 302 281 274 264 259
335 326 328 324 335 349 356 43 63 45 55 73 58 132 142 160 168 165 165 164 166 165 167 170 172 176 179 181 188 199 204 184 179 283 304 305 310 311 289 311 349 347 336 328 340 326 269 273 269
320 290 319 6 331 333 334 347 2 259 57 58 82 130 143 162 170 174 164 161 165 169 176 177 180 185 196 203 211 206 222 208 236 267 287 303 289 288 296 290 312 322 324 322 312 320 277 271 272
300 304 17 353 344 329 336 355 29 339 202 97 92 140 153 164 170 168 163 156 158 166 165 173 180 192 206 210 216 221 231 242 264 281 279 281 283 280 303 302 297 311 316 318 312 297 265 268 276
268 279 255 310 323 15 345 9 334 11 227 184 154 152 155 164 169 172 172 183 159 147 179 170 177 190 202 218 229 235 238 250 268 278 275 277 285 287 293 317 314 315 315 316 312 292 254 267 267
243 269 296 316 147 10 345 343 316 325 331 220 196 189 174 175 181 187 184 173 183 115 116 154 192 206 209 216 229 233 225 235 256 270 277 289 296 298 294 308 318 321 319 322 324 310 244 270 278
210 244 238 333 309 342 301 305 300 323 303 238 218 205 205 190 191 195 192 194 194 187 217 202 181 221 220 224 229 225 221 231 248 272 307 304 307 311 306 308 316 325 328 326 324 316 272 269 279
232 244 258 292 357 321 300 310 300 300 303 240 210 218 210 198 193 198 200 203 194 189 178 217 229 230 232 233 228 222 226 228 241 264 287 292 302 303 315 318 320 324 320 318 311 307 297 284 283
237 243 247 264 276 319 288 295 296 285 324 318 235 207 206 203 205 206 206 206 200 194 199 196 217 224 233 227 232 227 234 236 252 271 283 293 300 305 316 317 319 319 319 320 313 297 292 289 289
236 241 248 261 284 288 283 285 248 289 319 345 334 219 204 214 213 203 203 202 204 206 208 214 212 214 222 223 229 236 244 246 267 273 281 293 300 307 315 317 317 327 329 329 328 326 322 317 317
235 234 245 257 274 273 297 293 256 263 294 318 331 304 220 214 208 203 205 202 195 197 209 212 214 214 217 226 234 240 249 256 268 275 288 299 309 315 327 344 355 359 357 357 359 356 330 323 329
231 241 244 250 261 265 269 259 275 274 275 290 310 303 228 217 213 211 204 203 194 200 205 213 220 220 209 221 230 235 246 253 267 281 302 303 315 334 359 354 347 353 2 5 5 7 360 351 344
228 240 245 253 257 262 257 246 271 257 273 303 325 326 225 216 215 212 212 216 218 210 209 213 216 225 222 216 231 243 245 243 248 267 287 308 317 335 330 334 338 343 346 350 352 354 357 355 348
216 228 239 236 235 244 251 247 255 282 286 283 323 321 237 217 215 210 221 227 227 232 231 217 211 219 222 218 222 228 241 238 242 274 293 308 307 325 331 345 346 350 349 346 343 339 337 339 339
223 223 228 231 239 246 203 253 262 275 293 276 320 323 272 229 223 214 223 229 231 236 224 231 209 207 212 212 226 227 222 234 244 258 289 294 300 327 335 344 354 354 350 345 339 336 334 332 332
215 224 227 257 248 279 261 249 268 275 290 287 305 313 280 245 232 218 218 225 227 233 234 223 214 204 209 216 229 238 239 241 256 269 276 278 308 321 334 342 340 339 346 348 340 336 334 332 332
226 243 216 229 254 240 252 247 271 276 292 298 314 311 276 252 241 220 214 221 228 229 231 218 216 209 210 222 234 245 242 252 258 259 264 260 293 322 343 338 331 334 345 351 348 342 338 333 331
212 223 226 250 226 256 252 253 266 277 286 298 316 311 300 236 243 223 215 220 225 226 227 219 221 221 217 228 239 253 259 254 266 262 265 261 288 291 317 328 322 324 330 336 339 339 336 332 329
222 220 227 224 232 243 271 280 275 286 285 292 303 299 306 272 243 218 222 223 226 228 220 216 220 224 224 230 243 253 257 256 256 250 258 255 268 284 297 310 316 323 328 330 327 330 330 327 327
Height
3171 3170 3169 3169 3174 3171 3171 3174 3173 3173 3173 3172 3172 3174 3175 3174 3175 3179 3176 3178 3180 3182 3183 3184 3184 3185 3187 3188 3189 3190 3191 3191 3192 3193 3193 3194 3196 3196 3196 3197 3198 3198 3199 3199 3200 3200 3200 3201 3201
3173 3172 3171 3171 3173 3171 3174 3175 3175 3175 3173 3172 3172 3173 3175 3174 3174 3174 3176 3178 3180 3182 3184 3185 3186 3187 3189 3190 3191 3192 3193 3194 3195 3195 3195 3197 3197 3198 3198 3198 3199 3200 3200 3200 3201 3201 3202 3202 3203
3175 3175 3174 3175 3175 3175 3177 3177 3176 3175 3174 3175 3173 3173 3174 3175 3175 3176 3178 3180 3181 3183 3185 3187 3187 3189 3190 3192 3194 3194 3195 3196 3196 3196 3197 3198 3199 3199 3200 3200 3201 3201 3202 3202 3202 3203 3203 3204 3204
3177 3177 3178 3180 3179 3179 3179 3178 3177 3176 3176 3175 3174 3174 3174 3175 3176 3178 3179 3181 3183 3185 3187 3189 3189 3191 3193 3194 3195 3196 3196 3197 3197 3198 3199 3200 3200 3200 3201 3201 3202 3203 3203 3203 3203 3204 3204 3205 3205
3179 3180 3180 3180 3181 3181 3180 3179 3179 3179 3177 3177 3176 3175 3175 3176 3177 3179 3181 3183 3185 3186 3188 3191 3192 3193 3194 3195 3197 3197 3198 3198 3199 3199 3200 3200 3201 3201 3202 3202 3203 3203 3203 3204 3204 3204 3205 3205 3205
3183 3183 3182 3181 3182 3182 3181 3179 3180 3180 3178 3177 3177 3176 3177 3177 3178 3180 3182 3184 3186 3188 3190 3192 3193 3194 3196 3197 3198 3198 3198 3199 3199 3200 3200 3201 3201 3201 3202 3202 3203 3203 3204 3204 3204 3204 3204 3205 3205
3184 3187 3186 3185 3184 3183 3182 3180 3181 3181 3180 3179 3178 3179 3179 3179 3179 3181 3183 3185 3187 3189 3191 3192 3194 3195 3196 3197 3198 3199 3200 3200 3201 3201 3201 3201 3201 3201 3202 3202 3203 3203 3203 3203 3204 3204 3204 3204 3204
3185 3187 3186 3185 3185 3185 3182 3181 3181 3182 3180 3180 3179 3181 3180 3180 3181 3182 3184 3186 3188 3190 3192 3193 3195 3196 3197 3198 3199 3200 3201 3201 3202 3202 3202 3202 3201 3201 3202 3201 3201 3201 3201 3202 3203 3203 3202 3203 3203
3187 3189 3187 3187 3186 3186 3183 3183 3182 3182 3180 3180 3180 3181 3180 3181 3182 3183 3185 3187 3189 3191 3193 3195 3196 3197 3198 3199 3201 3202 3202 3203 3203 3203 3203 3202 3200 3202 3201 3201 3200 3200 3200 3200 3201 3201 3202 3202 3202
3190 3191 3189 3187 3187 3188 3185 3185 3184 3183 3181 3180 3180 3180 3180 3181 3184 3185 3187 3189 3190 3192 3194 3195 3197 3199 3200 3200 3201 3202 3203 3204 3204 3204 3204 3203 3203 3203 3203 3202 3202 3201 3200 3200 3200 3199 3199 3200 3200
3190 3191 3189 3187 3186 3187 3187 3186 3186 3184 3184 3183 3180 3180 3180 3182 3185 3186 3188 3190 3192 3193 3194 3196 3197 3198 3200 3200 3201 3202 3203 3204 3204 3205 3204 3204 3204 3202 3203 3203 3202 3201 3200 3199 3198 3198 3197 3197 3198
3192 3191 3189 3187 3186 3187 3188 3187 3186 3186 3185 3183 3181 3180 3181 3182 3184 3187 3188 3190 3192 3194 3195 3196 3198 3199 3200 3201 3201 3202 3203 3204 3204 3205 3204 3204 3204 3203 3202 3202 3202 3201 3200 3199 3197 3196 3195 3194 3194
3192 3190 3189 3188 3187 3186 3187 3187 3187 3186 3185 3184 3182 3181 3182 3183 3185 3187 3189 3190 3192 3193 3195 3197 3199 3200 3201 3201 3202 3202 3203 3203 3204 3204 3204 3203 3203 3202 3202 3201 3201 3201 3198 3196 3195 3194 3192 3192 3192
3191 3190 3189 3188 3187 3186 3187 3187 3187 3187 3186 3184 3183 3182 3183 3184 3186 3188 3189 3190 3192 3193 3194 3195 3197 3199 3200 3201 3202 3202 3202 3203 3203 3204 3203 3202 3201 3200 3200 3200 3199 3198 3197 3195 3194 3191 3190 3190 3189
3190 3191 3189 3189 3188 3187 3186 3186 3187 3186 3185 3185 3184 3183 3184 3185 3187 3189 3190 3191 3192 3193 3194 3195 3196 3198 3199 3200 3201 3202 3202 3203 3203 3203 3202 3201 3200 3200 3199 3198 3198 3196 3194 3192 3192 3190 3188 3188 3188
3191 3191 3189 3188 3188 3187 3187 3187 3185 3185 3184 3184 3184 3184 3184 3185 3187 3188 3189 3190 3191 3191 3192 3194 3196 3197 3198 3199 3200 3200 3201 3201 3201 3201 3200 3200 3199 3199 3198 3197 3195 3194 3191 3190 3188 3185 3186 3186 3185
3191 3187 3189 3189 3187 3187 3187 3187 3183 3183 3184 3184 3184 3184 3184 3184 3186 3187 3188 3189 3190 3190 3191 3193 3195 3196 3197 3198 3199 3199 3200 3200 3200 3200 3199 3199 3198 3197 3197 3196 3194 3192 3189 3187 3184 3182 3183 3183 3183
3185 3187 3188 3188 3189 3186 3186 3186 3183 3181 3181 3182 3183 3183 3183 3184 3185 3186 3187 3188 3189 3189 3191 3193 3194 3194 3195 3196 3197 3199 3200 3200 3200 3200 3200 3199 3198 3198 3196 3195 3192 3189 3187 3185 3183 3181 3181 3181 3180
3188 3188 3187 3187 3186 3186 3186 3185 3184 3181 3179 3180 3181 3181 3182 3183 3184 3185 3186 3187 3187 3188 3189 3191 3192 3193 3194 3195 3196 3198 3199 3199 3200 3200 3199 3198 3197 3196 3195 3192 3190 3187 3185 3183 3182 3180 3179 3177 3177
3186 3186 3185 3186 3185 3186 3184 3183 3182 3180 3178 3177 3178 3179 3180 3181 3182 3183 3184 3185 3186 3187 3188 3189 3190 3191 3192 3194 3195 3197 3198 3198 3199 3199 3198 3197 3195 3193 3192 3190 3188 3186 3183 3180 3179 3177 3176 3174 3173
3182 3183 3182 3185 3184 3183 3182 3178 3179 3178 3177 3175 3176 3176 3178 3179 3180 3182 3183 3184 3184 3186 3187 3188 3188 3189 3190 3192 3194 3196 3196 3198 3197 3197 3197 3196 3195 3192 3190 3188 3186 3184 3181 3179 3177 3175 3174 3173 3171
3178 3180 3182 3183 3184 3180 3180 3176 3174 3175 3175 3174 3173 3173 3174 3176 3178 3180 3182 3183 3184 3184 3185 3186 3187 3187 3189 3191 3193 3195 3196 3196 3196 3195 3195 3195 3193 3191 3190 3187 3184 3183 3181 3178 3176 3174 3174 3172 3171
3176 3178 3180 3181 3181 3179 3177 3177 3171 3172 3173 3173 3172 3170 3171 3173 3176 3178 3180 3183 3182 3182 3184 3185 3186 3188 3188 3190 3192 3193 3194 3195 3195 3195 3194 3193 3192 3190 3189 3188 3186 3184 3181 3179 3177 3175 3173 3171 3169
3175 3176 3178 3178 3178 3173 3171 3172 3168 3168 3171 3172 3170 3168 3167 3170 3172 3175 3178 3179 3179 3181 3182 3183 3185 3186 3187 3189 3190 3191 3192 3193 3193 3193 3193 3193 3192 3190 3189 3187 3186 3184 3181 3179 3177 3175 3173 3171 3168
3170 3174 3172 3172 3170 3167 3165 3169 3168 3167 3168 3169 3169 3167 3166 3167 3168 3171 3173 3176 3177 3178 3179 3180 3181 3183 3185 3186 3188 3189 3191 3191 3191 3192 3192 3192 3191 3190 3188 3187 3185 3184 3182 3179 3176 3174 3171 3169 3167
3166 3167 3165 3164 3160 3157 3161 3165 3164 3166 3166 3166 3166 3165 3164 3165 3165 3168 3170 3172 3174 3175 3176 3178 3179 3181 3183 3184 3185 3187 3188 3189 3190 3191 3191 3191 3191 3189 3188 3186 3184 3182 3181 3179 3175 3172 3169 3167 3164
3161 3162 3163 3161 3157 3158 3155 3160 3162 3163 3164 3164 3164 3162 3161 3162 3163 3165 3168 3169 3170 3172 3174 3176 3178 3179 3182 3183 3184 3185 3186 3186 3187 3189 3190 3190 3189 3188 3186 3185 3184 3182 3179 3176 3173 3171 3168 3165 3162
3158 3161 3162 3162 3157 3156 3155 3157 3158 3160 3161 3161 3161 3160 3160 3158 3160 3162 3165 3166 3168 3169 3172 3175 3177 3178 3180 3181 3182 3183 3183 3185 3185 3187 3187 3187 3187 3187 3186 3184 3182 3180 3177 3175 3172 3169 3166 3164 3161
3156 3156 3157 3155 3154 3151 3149 3151 3154 3157 3159 3159 3159 3158 3156 3155 3157 3160 3162 3164 3165 3167 3169 3172 3175 3176 3177 3178 3179 3180 3181 3181 3183 3184 3185 3185 3185 3184 3183 3182 3180 3178 3176 3173 3170 3167 3164 3162 3159
3150 3152 3153 3154 3155 3155 3152 3150 3152 3154 3155 3156 3156 3155 3154 3153 3154 3157 3160 3161 3162 3164 3166 3169 3171 3173 3174 3175 3176 3176 3177 3178 3179 3180 3182 3183 3182 3182 3181 3180 3178 3177 3174 3171 3168 3165 3162 3159 3157